[[{"header":{"parameterUnit":"m.s-1","parameterCategory":1,"la1":30.2991,"la2":30.254,"lo1":-89.0895,"lo2":-89.0444,"dy":0.0017,"dx":0.0017,"nx":28,"ny":28,"refTime":"2025-07-10T03:00:00:Z","depth":0,"parameterNumber":2,"parameterNumberName":"U-component_of_WINDS"},"data":[0,0,0,0,0,0,0,0,0,0,0,0,0,0,0,0,0,0,0,0,0,0,0,0,0,0,0,0,0,0,0,0,0,0,0,0,0,0,0,0,0,0,0,0,0,0,0,0,0,0,0,0,0,0,0,0,0,0,3.9109,3.911,0,3.9162,3.9163,3.9163,3.9135,3.9134,3.9133,3.9131,3.9187,3.919,3.9193,0,0,0,0,0,0,0,0,0,0,0,0,0,3.8986,3.8989,3.9109,3.911,3.9111,3.9162,3.9163,3.9164,3.9136,3.9134,3.9132,3.9131,3.9186,3.919,3.9193,0,0,0,0,0,0,0,0,0,0,0,0,0,3.904,3.8989,3.9109,3.9103,3.9103,3.9162,3.9163,3.9164,3.9136,3.9134,3.9132,3.913,3.9185,3.9189,3.9194,3.9263,0,0,3.9207,3.9208,0,0,0,0,0,0,0,0,3.9037,3.9044,3.9103,3.9103,3.9103,3.914,3.914,3.9197,3.9137,3.9123,3.9131,3.9129,3.9173,3.9179,3.9193,3.9265,3.9268,3.9207,3.921,3.9211,3.9213,0,0,0,0,0,0,0,3.9033,3.9042,3.913,3.9104,3.9104,3.9098,3.9103,3.9151,3.916,3.9124,3.9122,3.9129,3.9173,3.9189,3.9194,3.9269,3.9207,3.9211,3.9213,3.9215,3.9402,3.9404,0,0,0,0,0,0,3.9029,3.9039,3.9129,3.9132,3.9064,3.9102,3.9108,3.913,3.9159,3.9162,3.9131,3.9128,3.9183,3.9189,3.9196,3.928,3.9211,3.9215,3.9218,3.9399,3.9402,3.9405,0,0,0,0,0,0,3.9027,3.9038,3.9126,3.9085,3.9096,3.9106,3.9132,3.9133,3.9149,3.9164,3.9166,3.9145,3.9182,3.919,3.9247,3.9282,3.9217,3.9221,3.9396,3.94,3.9404,3.9448,0,0,0,0,0,0,3.9023,3.9037,3.9063,3.9086,3.9098,3.9175,3.9134,3.9135,3.9156,3.9152,3.9178,3.9181,3.9181,3.924,3.9251,3.9286,3.9224,3.9393,3.9398,3.9402,3.9443,3.9452,3.946,0,0,0,0,0,3.9019,3.9073,3.9064,3.9075,3.913,3.9177,3.9185,3.9183,3.9159,3.9185,3.9195,3.918,3.9276,3.9246,3.9258,3.9295,3.9391,3.9397,3.9402,3.9439,3.9451,3.946,0,0,0,0,0,0,3.9054,3.9076,3.9066,3.9129,3.9152,3.9173,3.9206,3.9195,3.9225,3.922,3.9217,3.9224,3.9283,3.9294,3.9261,3.9364,3.933,3.9338,3.9354,3.9365,3.9374,3.937,3.9228,0,0,0,0,0,3.9069,3.9105,3.9122,3.9176,3.9188,3.9195,3.9215,3.9212,3.9236,3.9245,3.9259,3.9283,3.9319,3.9343,3.9376,3.9445,3.9451,3.9476,3.9485,3.9492,3.9499,3.9537,3.9549,3.9423,3.9423,3.9423,0,0,3.9101,3.9117,3.914,3.9184,3.9201,3.9239,3.9203,3.9245,3.9273,3.9252,3.9306,3.9317,3.9344,3.9407,3.9435,3.9419,3.9535,3.9499,3.9504,3.9507,3.9544,3.9556,3.9567,3.9426,3.9426,3.9425,0,0,3.9178,3.9193,3.9241,3.9258,3.9285,3.9289,3.93,3.9323,3.933,3.9384,3.9369,3.9403,3.9465,3.9485,3.9503,3.9588,3.9576,3.96,3.9645,3.9682,3.9692,3.9701,3.9732,3.9744,3.9607,3.9607,3.9607,0,3.9214,3.927,3.9266,3.9309,3.933,3.9311,3.936,3.9377,3.9414,3.9429,3.9409,3.9486,3.9503,3.9571,3.9592,3.9607,3.9621,3.9597,3.9691,3.9699,3.9708,3.9738,3.975,3.9609,3.9609,3.9609,3.9609,0,3.9314,3.9353,3.9388,3.9423,3.9447,3.9493,3.9497,3.9522,3.9517,3.9524,3.958,3.9599,3.9637,3.9653,3.9648,3.9721,3.971,3.969,3.9656,3.9723,3.9751,3.9762,3.9613,3.9612,3.9612,3.9611,0,0,3.9415,3.9447,3.946,3.9477,3.9505,3.9535,3.958,3.9617,3.9639,3.9664,3.9703,3.9756,3.9739,3.9759,3.9757,3.979,3.9858,3.9767,3.9767,3.9784,3.994,3.9955,3.9969,3.9849,3.9851,3.9853,3.9938,0,3.9495,3.9573,3.9571,3.9644,3.9681,3.9665,3.9704,3.9726,3.9734,3.9767,3.9776,3.9814,3.9787,3.98,3.9832,3.9843,3.9889,3.9836,3.9886,3.9888,3.9881,3.9983,3.9999,4.0078,3.9949,3.9951,3.9953,0,3.9598,3.9627,3.9704,3.9727,3.9742,3.9778,3.9812,3.9843,3.9868,3.9872,3.9895,3.9888,3.9935,3.9899,3.9964,3.9928,3.9949,3.9957,3.996,3.9966,3.9925,3.9992,4.0104,4.0116,3.997,3.9969,3.9967,0,3.9665,3.9724,3.9777,3.9791,3.982,3.9845,3.9858,3.9881,3.9903,3.9933,3.9948,3.9983,4.0003,4.0031,4.0033,4.0006,4.01,4.0064,4.0105,4.0105,4.0126,4.0125,4.0243,4.0138,4.0138,4.0137,4.0137,0,3.9755,3.9803,3.9808,3.9841,3.9895,3.9893,3.9946,3.9957,3.9978,4.0013,4.0001,4.0035,4.0036,4.0072,4.0074,4.0129,4.0138,4.0143,4.0143,4.0144,4.0144,4.0158,4.0153,4.0141,4.014,4.0139,4.0139,0,3.984,3.9845,3.9902,3.9924,3.9931,3.997,3.9989,4.0021,4.0028,4.0074,4.0084,4.0095,4.0136,4.0141,4.0189,4.0191,4.0257,4.0251,4.0249,4.0248,4.029,4.0286,4.0422,4.0441,4.0322,4.0323,4.0324,0,3.9897,3.9934,3.996,3.9983,3.9997,4.0034,4.0057,4.0056,4.0081,4.0112,4.0141,4.0181,4.0212,4.0279,4.0291,4.0328,4.0324,4.0369,4.0329,4.033,4.0326,4.0324,4.0328,4.0377,4.0378,4.0379,4.038,0,3.9999,4.0,4.0033,4.0067,4.0095,4.0122,4.0147,4.0167,4.017,4.0198,4.0239,4.0264,4.0313,4.0353,4.0389,4.0404,4.0393,4.0392,4.0404,4.0406,4.0404,4.0407,4.0271,4.0389,4.0389,4.0388,4.0387,4.0387,4.0073,4.0105,4.0128,4.0166,4.0185,4.0209,4.0241,4.0251,4.0286,4.0325,4.0323,4.0369,4.0394,4.0442,4.0459,4.0496,4.0481,4.0498,4.0502,4.0507,4.0511,4.0397,4.0502,4.0502,4.0502,4.0501,4.0501,0,4.0175,4.0189,4.0224,4.026,4.029,4.0276,4.0304,4.033,4.037,4.0394,4.0425,4.0474,4.0513,4.0529,4.0567,4.0593,4.059,4.0604,4.0602,4.0606,4.0522,4.0508,4.0606,4.0606,4.0606,4.0606,4.0606,4.0606,4.0232,4.0286,4.029,4.0353,4.0367,4.0412,4.0429,4.0452,4.0471,4.0525,4.0557,4.0567,4.0588,4.0628,4.0664,4.0667,4.0683,4.0699,4.0701,4.0622,4.0612,4.0602,4.0589,4.0702,4.0702,4.0782,4.0783,4.0783]},{"header":{"parameterUnit":"m.s-1","parameterCategory":1,"la1":30.2991,"la2":30.254,"lo1":-89.0895,"lo2":-89.0444,"dy":0.0017,"dx":0.0017,"nx":28,"ny":28,"refTime":"2025-07-10T03:00:00:Z","depth":0,"parameterNumber":3,"parameterNumberName":"V-component_of_WINDS"},"data":[0,0,0,0,0,0,0,0,0,0,0,0,0,0,0,0,0,0,0,0,0,0,0,0,0,0,0,0,0,0,0,0,0,0,0,0,0,0,0,0,0,0,0,0,0,0,0,0,0,0,0,0,0,0,0,0,0,0,-0.2198,-0.2198,0,-0.2185,-0.2185,-0.2184,-0.2171,-0.2171,-0.2171,-0.2171,-0.2157,-0.2156,-0.2156,0,0,0,0,0,0,0,0,0,0,0,0,0,-0.2213,-0.2213,-0.2198,-0.2198,-0.2198,-0.2185,-0.2185,-0.2184,-0.2171,-0.2171,-0.2171,-0.2171,-0.2157,-0.2156,-0.2156,0,0,0,0,0,0,0,0,0,0,0,0,0,-0.2204,-0.2213,-0.2198,-0.219,-0.2189,-0.2185,-0.2185,-0.2184,-0.2171,-0.2171,-0.2171,-0.217,-0.2157,-0.2156,-0.2156,-0.2159,0,0,-0.2155,-0.2155,0,0,0,0,0,0,0,0,-0.2204,-0.2203,-0.2191,-0.219,-0.2189,-0.2179,-0.2185,-0.2176,-0.2171,-0.2178,-0.2171,-0.217,-0.2164,-0.2163,-0.2161,-0.2159,-0.2158,-0.2155,-0.2155,-0.2155,-0.2155,0,0,0,0,0,0,0,-0.2205,-0.2204,-0.2193,-0.2191,-0.219,-0.2187,-0.2185,-0.2183,-0.2173,-0.2177,-0.2176,-0.2175,-0.2164,-0.2162,-0.2161,-0.2158,-0.2155,-0.2155,-0.2155,-0.2155,-0.2159,-0.2159,0,0,0,0,0,0,-0.2207,-0.2204,-0.2193,-0.2192,-0.2196,-0.2187,-0.2185,-0.2183,-0.2173,-0.2171,-0.2175,-0.2174,-0.2162,-0.2161,-0.216,-0.2165,-0.2155,-0.2154,-0.2154,-0.2159,-0.2159,-0.2159,0,0,0,0,0,0,-0.2207,-0.2206,-0.2194,-0.2198,-0.2196,-0.2187,-0.2184,-0.2183,-0.2181,-0.2171,-0.2169,-0.2175,-0.2162,-0.2161,-0.216,-0.2164,-0.2154,-0.2154,-0.2158,-0.2159,-0.2159,-0.2172,0,0,0,0,0,0,-0.2208,-0.2206,-0.2207,-0.2198,-0.2196,-0.2193,-0.2185,-0.2183,-0.218,-0.2179,-0.217,-0.2169,-0.2162,-0.2161,-0.216,-0.2163,-0.2154,-0.2158,-0.2158,-0.2159,-0.2171,-0.2173,-0.2175,0,0,0,0,0,-0.2208,-0.2211,-0.2207,-0.2206,-0.2197,-0.2194,-0.2192,-0.2185,-0.218,-0.2181,-0.2176,-0.2169,-0.2164,-0.2161,-0.216,-0.2163,-0.2158,-0.2158,-0.2159,-0.2171,-0.2173,-0.2175,0,0,0,0,0,0,-0.2219,-0.2209,-0.2205,-0.2205,-0.22,-0.2191,-0.2192,-0.2187,-0.2183,-0.2182,-0.2173,-0.2171,-0.2171,-0.2167,-0.2164,-0.2167,-0.216,-0.216,-0.2169,-0.2171,-0.2173,-0.2174,-0.2154,0,0,0,0,0,-0.2222,-0.222,-0.2211,-0.2212,-0.221,-0.2202,-0.22,-0.2195,-0.2189,-0.2187,-0.2181,-0.2176,-0.2174,-0.2172,-0.2169,-0.2171,-0.2169,-0.2173,-0.2174,-0.2176,-0.2176,-0.2178,-0.218,-0.2162,-0.2162,-0.2162,0,0,-0.2227,-0.2221,-0.2221,-0.2214,-0.221,-0.2209,-0.22,-0.2199,-0.2198,-0.2187,-0.2186,-0.2182,-0.2176,-0.2177,-0.2177,-0.2173,-0.2181,-0.2177,-0.2178,-0.2178,-0.2179,-0.2181,-0.2183,-0.2162,-0.2162,-0.2162,0,0,-0.2236,-0.2231,-0.2232,-0.2228,-0.2222,-0.2217,-0.2217,-0.2209,-0.2206,-0.2205,-0.2198,-0.2197,-0.2192,-0.2188,-0.2186,-0.2195,-0.219,-0.2195,-0.2203,-0.2205,-0.2206,-0.2208,-0.2212,-0.2213,-0.2195,-0.2195,-0.2195,0,-0.2243,-0.224,-0.2233,-0.2232,-0.223,-0.2221,-0.2222,-0.2219,-0.2212,-0.2211,-0.2207,-0.2202,-0.2197,-0.2198,-0.2201,-0.2199,-0.2199,-0.2195,-0.2207,-0.2208,-0.2209,-0.2213,-0.2214,-0.2196,-0.2196,-0.2196,-0.2196,0,-0.225,-0.2248,-0.225,-0.2244,-0.2242,-0.2242,-0.2235,-0.2234,-0.223,-0.2225,-0.2225,-0.2219,-0.2216,-0.2215,-0.221,-0.2216,-0.2214,-0.2208,-0.2201,-0.2212,-0.2215,-0.2216,-0.2197,-0.2197,-0.2197,-0.2196,0,0,-0.2264,-0.2256,-0.2256,-0.2254,-0.2248,-0.2247,-0.2247,-0.2244,-0.2244,-0.224,-0.224,-0.2238,-0.2233,-0.2231,-0.2225,-0.2227,-0.2236,-0.2222,-0.2221,-0.2225,-0.2243,-0.2247,-0.2249,-0.2232,-0.2233,-0.2233,-0.2244,0,-0.2272,-0.2272,-0.2266,-0.2268,-0.2267,-0.226,-0.226,-0.2256,-0.2253,-0.2252,-0.2247,-0.2246,-0.2239,-0.2238,-0.2239,-0.2235,-0.224,-0.2234,-0.2233,-0.2233,-0.2235,-0.2251,-0.2255,-0.2265,-0.2245,-0.2245,-0.2245,0,-0.2281,-0.2279,-0.2281,-0.2276,-0.2275,-0.2276,-0.2273,-0.2272,-0.2268,-0.2265,-0.2263,-0.2258,-0.2258,-0.2252,-0.2253,-0.225,-0.2249,-0.2247,-0.2247,-0.2247,-0.224,-0.2251,-0.2269,-0.227,-0.2247,-0.2247,-0.2247,0,-0.2292,-0.2289,-0.2291,-0.2289,-0.2283,-0.2284,-0.2281,-0.2277,-0.2276,-0.2274,-0.2274,-0.2272,-0.2271,-0.2269,-0.2264,-0.2259,-0.2266,-0.2259,-0.2264,-0.2264,-0.2265,-0.2266,-0.2283,-0.2265,-0.2265,-0.2265,-0.2265,0,-0.2302,-0.2303,-0.2296,-0.2297,-0.2299,-0.2292,-0.2295,-0.2291,-0.2288,-0.2289,-0.2282,-0.2282,-0.2275,-0.2275,-0.227,-0.2273,-0.2272,-0.227,-0.2269,-0.2271,-0.2271,-0.227,-0.227,-0.2265,-0.2265,-0.2265,-0.2265,0,-0.2314,-0.2309,-0.231,-0.2305,-0.2304,-0.2306,-0.2301,-0.2302,-0.2298,-0.2299,-0.2299,-0.2293,-0.2293,-0.2287,-0.2285,-0.2283,-0.2287,-0.2284,-0.2288,-0.2288,-0.2293,-0.2293,-0.2312,-0.2314,-0.2294,-0.2294,-0.2294,0,-0.2321,-0.2322,-0.2318,-0.2318,-0.2316,-0.2316,-0.2315,-0.2309,-0.2309,-0.2306,-0.2307,-0.2306,-0.2306,-0.2306,-0.2301,-0.2301,-0.2298,-0.2305,-0.2298,-0.23,-0.2299,-0.2299,-0.23,-0.2306,-0.2306,-0.2306,-0.2307,0,-0.2333,-0.2331,-0.233,-0.2329,-0.2329,-0.2328,-0.2326,-0.2327,-0.232,-0.232,-0.232,-0.232,-0.2319,-0.2319,-0.2317,-0.2315,-0.231,-0.2309,-0.231,-0.2312,-0.2315,-0.2314,-0.2293,-0.2308,-0.2308,-0.2308,-0.2308,-0.2308,-0.2343,-0.2345,-0.2342,-0.2342,-0.234,-0.234,-0.2341,-0.2337,-0.2337,-0.2337,-0.2333,-0.2334,-0.2332,-0.233,-0.2328,-0.2329,-0.2326,-0.2327,-0.2328,-0.2328,-0.233,-0.2315,-0.2329,-0.2329,-0.2328,-0.2328,-0.2328,0,-0.2356,-0.2354,-0.2354,-0.2353,-0.2353,-0.2349,-0.2347,-0.2348,-0.2349,-0.2347,-0.2347,-0.2348,-0.2348,-0.2345,-0.2345,-0.2346,-0.2344,-0.2346,-0.2346,-0.2346,-0.2332,-0.2332,-0.2348,-0.2348,-0.2348,-0.2348,-0.2348,-0.2348,-0.2362,-0.2365,-0.2363,-0.2365,-0.2363,-0.2365,-0.2364,-0.2364,-0.2363,-0.2364,-0.2364,-0.2362,-0.236,-0.236,-0.2361,-0.236,-0.236,-0.2363,-0.2362,-0.2349,-0.2347,-0.2345,-0.2344,-0.2363,-0.2363,-0.2375,-0.2376,-0.2376]}]]